"Sample Date","Sample Time","Sample Value","Units","Flow Rate","Sample Interval","Number Channels","Micron Size 0","Counts/Channel 0","Micron Size 1","Counts/Channel 1","Micron Size 2","Counts/Channel 2","Micron Size 3","Counts/Channel 3","Micron Size 4","Counts/Channel 4","Micron Size 5","Counts/Channel 5","Micron Size 6","Counts/Channel 6","Micron Size 7","Counts/Channel 7","Micron Size 8","Counts/Channel 8","Micron Size 9","Counts/Channel 9","Micron Size 10","Counts/Channel 10","Micron Size 11","Counts/Channel 11","Micron Size 12","Counts/Channel 12","Micron Size 13","Counts/Channel 13","Micron Size 14","Counts/Channel 14","Micron Size 15","Counts/Channel 15","Micron Size 16","Counts/Channel 16","Micron Size 17","Counts/Channel 17","Micron Size 18","Counts/Channel 18","Micron Size 19","Counts/Channel 19","Micron Size 20","Counts/Channel 20","Micron Size 21","Counts/Channel 21","Micron Size 22","Counts/Channel 22","Micron Size 23","Counts/Channel 23","Micron Size 24","Counts/Channel 24","Micron Size 25","Counts/Channel 25","Micron Size 26","Counts/Channel 26","Micron Size 27","Counts/Channel 27","Micron Size 28","Counts/Channel 28","Micron Size 29","Counts/Channel 29","Micron Size 30","Counts/Channel 30","Micron Size 31","Counts/Channel 31"
"03/12/08","09:00:02",23451.000,"cc",28260.244,6.00,6,0.100,20470.000,0.200,1563.000,0.300,678.000,0.500,625.000,1.000,115.000,5.000,0
"03/12/08","09:00:08",23434.000,"cc",28303.875,6.00,6,0.100,20412.000,0.200,1522.000,0.300,770.000,0.500,615.000,1.000,115.000,5.000,0
"03/12/08","09:00:14",23226.000,"cc",28365.078,6.00,6,0.100,20293.000,0.200,1584.000,0.300,646.000,0.500,599.000,1.000,104.000,5.000,0
"03/12/08","09:00:20",23192.000,"cc",28328.090,6.00,6,0.100,20350.000,0.200,1537.000,0.300,664.000,0.500,544.000,1.000,97.000,5.000,0
"03/12/08","09:00:26",23456.000,"cc",28304.781,6.00,6,0.100,20502.000,0.200,1563.000,0.300,691.000,0.500,595.000,1.000,105.000,5.000,0
"03/12/08","09:00:32",23182.000,"cc",28308.197,6.00,6,0.100,20280.000,0.200,1578.000,0.300,639.000,0.500,598.000,1.000,87.000,5.000,0
"03/12/08","09:00:38",23372.000,"cc",28359.619,6.00,6,0.100,20405.000,0.200,1579.000,0.300,697.000,0.500,578.000,1.000,113.000,5.000,0
"03/12/08","09:00:44",22931.000,"cc",28310.523,6.00,6,0.100,20155.000,0.200,1515.000,0.300,619.000,0.500,554.000,1.000,88.000,5.000,0
"03/12/08","09:00:50",23257.000,"cc",28286.484,6.00,6,0.100,20375.000,0.200,1475.000,0.300,700.000,0.500,610.000,1.000,97.000,5.000,0
"03/12/08","09:00:56",23139.000,"cc",28310.514,6.00,6,0.100,20258.000,0.200,1635.000,0.300,640.000,0.500,519.000,1.000,87.000,5.000,0
"03/12/08","09:01:02",23240.000,"cc",28291.617,6.00,6,0.100,20324.000,0.200,1577.000,0.300,671.000,0.500,580.000,1.000,88.000,5.000,0
"03/12/08","09:01:08",23077.000,"cc",28363.906,6.00,6,0.100,20215.000,0.200,1545.000,0.300,679.000,0.500,543.000,1.000,95.000,5.000,0
"03/12/08","09:01:14",23142.000,"cc",28281.436,6.00,6,0.100,20302.000,0.200,1519.000,0.300,663.000,0.500,575.000,1.000,83.000,5.000,0
"03/12/08","09:01:20",22987.000,"cc",28332.152,6.00,6,0.100,20158.000,0.200,1490.000,0.300,659.000,0.500,600.000,1.000,80.000,5.000,0
"03/12/08","09:01:26",23144.000,"cc",28356.090,6.00,6,0.100,20308.000,0.200,1547.000,0.300,622.000,0.500,570.000,1.000,97.000,5.000,0
"03/12/08","09:01:32",23124.000,"cc",28320.154,6.00,6,0.100,20208.000,0.200,1581.000,0.300,689.000,0.500,565.000,1.000,81.000,5.000,0
"03/12/08","09:01:38",22678.000,"cc",28242.715,6.00,6,0.100,19991.000,0.200,1439.000,0.300,643.000,0.500,530.000,1.000,75.000,5.000,0
"03/12/08","09:01:44",23057.000,"cc",28327.428,6.00,6,0.100,20295.000,0.200,1493.000,0.300,686.000,0.500,503.000,1.000,80.000,5.000,0
"03/12/08","09:01:50",23363.000,"cc",28327.545,6.00,6,0.100,20558.000,0.200,1566.000,0.300,625.000,0.500,545.000,1.000,69.000,5.000,0
"03/12/08","09:01:56",22825.000,"cc",28300.684,6.00,6,0.100,20085.000,0.200,1486.000,0.300,641.000,0.500,538.000,1.000,75.000,5.000,0
"03/12/08","09:02:02",22744.000,"cc",28298.082,6.00,6,0.100,20038.000,0.200,1493.000,0.300,620.000,0.500,514.000,1.000,79.000,5.000,0
"03/12/08","09:02:08",22699.000,"cc",28299.395,6.00,6,0.100,19926.000,0.200,1513.000,0.300,643.000,0.500,524.000,1.000,93.000,5.000,0
"03/12/08","09:02:14",23073.000,"cc",28319.654,6.00,6,0.100,20374.000,0.200,1462.000,0.300,679.000,0.500,497.000,1.000,61.000,5.000,0
"03/12/08","09:02:20",22637.000,"cc",28336.648,6.00,6,0.100,19825.000,0.200,1469.000,0.300,721.000,0.500,515.000,1.000,107.000,5.000,0
"03/12/08","09:02:26",23009.000,"cc",28296.150,6.00,6,0.100,20265.000,0.200,1418.000,0.300,686.000,0.500,549.000,1.000,91.000,5.000,0
"03/12/08","09:02:32",22827.000,"cc",28407.045,6.00,6,0.100,20068.000,0.200,1493.000,0.300,663.000,0.500,530.000,1.000,73.000,5.000,0
"03/12/08","09:02:38",22676.000,"cc",28317.723,6.00,6,0.100,19880.000,0.200,1500.000,0.300,697.000,0.500,526.000,1.000,73.000,5.000,0
"03/12/08","09:02:44",23048.000,"cc",28346.221,6.00,6,0.100,20338.000,0.200,1470.000,0.300,618.000,0.500,526.000,1.000,96.000,5.000,0
"03/12/08","09:02:50",22747.000,"cc",28264.082,6.00,6,0.100,19935.000,0.200,1491.000,0.300,687.000,0.500,557.000,1.000,77.000,5.000,0
"03/12/08","09:02:56",22691.000,"cc",28350.957,6.00,6,0.100,19999.000,0.200,1480.000,0.300,613.000,0.500,532.000,1.000,67.000,5.000,0
"03/12/08","09:03:02",22648.000,"cc",28285.385,6.00,6,0.100,19844.000,0.200,1523.000,0.300,634.000,0.500,556.000,1.000,91.000,5.000,0
"03/12/08","09:03:08",23041.000,"cc",28293.627,6.00,6,0.100,20220.000,0.200,1500.000,0.300,701.000,0.500,507.000,1.000,113.000,5.000,0
"03/12/08","09:03:14",23058.000,"cc",28293.500,6.00,6,0.100,20307.000,0.200,1486.000,0.300,633.000,0.500,550.000,1.000,82.000,5.000,0
"03/12/08","09:03:20",22911.000,"cc",28304.531,6.00,6,0.100,20122.000,0.200,1549.000,0.300,670.000,0.500,498.000,1.000,72.000,5.000,0
"03/12/08","09:03:26",22960.000,"cc",28323.408,6.00,6,0.100,20182.000,0.200,1451.000,0.300,701.000,0.500,523.000,1.000,103.000,5.000,0
"03/12/08","09:03:32",23112.000,"cc",28381.225,6.00,6,0.100,20296.000,0.200,1530.000,0.300,662.000,0.500,536.000,1.000,88.000,5.000,0
"03/12/08","09:03:38",23060.000,"cc",28277.354,6.00,6,0.100,20351.000,0.200,1458.000,0.300,668.000,0.500,504.000,1.000,79.000,5.000,0
"03/12/08","09:03:44",23171.000,"cc",28295.176,6.00,6,0.100,20376.000,0.200,1545.000,0.300,640.000,0.500,523.000,1.000,87.000,5.000,0
"03/12/08","09:03:50",23258.000,"cc",28270.496,6.00,6,0.100,20299.000,0.200,1656.000,0.300,693.000,0.500,528.000,1.000,82.000,5.000,0
"03/12/08","09:03:56",22738.000,"cc",28425.670,6.00,6,0.100,20028.000,0.200,1485.000,0.300,599.000,0.500,533.000,1.000,93.000,5.000,0
"03/12/08","09:04:02",23040.000,"cc",28323.580,6.00,6,0.100,20268.000,0.200,1517.000,0.300,659.000,0.500,510.000,1.000,86.000,5.000,0
"03/12/08","09:04:08",22917.000,"cc",28312.147,6.00,6,0.100,20107.000,0.200,1561.000,0.300,616.000,0.500,535.000,1.000,98.000,5.000,0
"03/12/08","09:04:14",22828.000,"cc",28318.705,6.00,6,0.100,20121.000,0.200,1420.000,0.300,618.000,0.500,571.000,1.000,98.000,5.000,0
"03/12/08","09:04:20",22781.000,"cc",28350.184,6.00,6,0.100,20000.000,0.200,1513.000,0.300,655.000,0.500,545.000,1.000,68.000,5.000,0
"03/12/08","09:04:26",23093.000,"cc",28289.326,6.00,6,0.100,20197.000,0.200,1549.000,0.300,647.000,0.500,607.000,1.000,93.000,5.000,0
"03/12/08","09:04:32",22853.000,"cc",28304.301,6.00,6,0.100,20050.000,0.200,1461.000,0.300,668.000,0.500,581.000,1.000,93.000,5.000,0
"03/12/08","09:04:38",23326.000,"cc",28340.986,6.00,6,0.100,20493.000,0.200,1468.000,0.300,669.000,0.500,588.000,1.000,108.000,5.000,0
"03/12/08","09:04:44",23081.000,"cc",28273.658,6.00,6,0.100,20197.000,0.200,1539.000,0.300,644.000,0.500,609.000,1.000,92.000,5.000,0
"03/12/08","09:04:50",22348.000,"cc",28311.617,6.00,6,0.100,19576.000,0.200,1428.000,0.300,660.000,0.500,588.000,1.000,96.000,5.000,0
"03/12/08","09:04:56",23136.000,"cc",28268.920,6.00,6,0.100,20279.000,0.200,1535.000,0.300,673.000,0.500,564.000,1.000,85.000,5.000,0
"03/12/08","09:05:02",22963.000,"cc",28341.025,6.00,6,0.100,20116.000,0.200,1539.000,0.300,656.000,0.500,563.000,1.000,89.000,5.000,0
"03/12/08","09:05:08",23120.000,"cc",28351.625,6.00,6,0.100,20180.000,0.200,1554.000,0.300,697.000,0.500,591.000,1.000,98.000,5.000,0
"03/12/08","09:05:14",23219.000,"cc",28311.162,6.00,6,0.100,20453.000,0.200,1497.000,0.300,633.000,0.500,548.000,1.000,88.000,5.000,0
"03/12/08","09:05:20",23031.000,"cc",28275.033,6.00,6,0.100,20154.000,0.200,1537.000,0.300,660.000,0.500,582.000,1.000,98.000,5.000,0
"03/12/08","09:05:26",23123.000,"cc",28310.264,6.00,6,0.100,20201.000,0.200,1521.000,0.300,688.000,0.500,611.000,1.000,102.000,5.000,0
"03/12/08","09:05:32",23200.000,"cc",28359.828,6.00,6,0.100,20301.000,0.200,1547.000,0.300,687.000,0.500,562.000,1.000,103.000,5.000,0
"03/12/08","09:05:38",22819.000,"cc",28296.484,6.00,6,0.100,19976.000,0.200,1517.000,0.300,690.000,0.500,530.000,1.000,106.000,5.000,0
"03/12/08","09:05:44",22817.000,"cc",28347.115,6.00,6,0.100,19963.000,0.200,1555.000,0.300,667.000,0.500,533.000,1.000,99.000,5.000,0
"03/12/08","09:05:50",23009.000,"cc",28309.520,6.00,6,0.100,20160.000,0.200,1512.000,0.300,660.000,0.500,580.000,1.000,97.000,5.000,0
"03/12/08","09:05:56",23301.000,"cc",28301.254,6.00,6,0.100,20285.000,0.200,1636.000,0.300,709.000,0.500,574.000,1.000,97.000,5.000,0
"03/12/08","09:06:02",23061.000,"cc",28338.363,6.00,6,0.100,20177.000,0.200,1529.000,0.300,679.000,0.500,571.000,1.000,105.000,5.000,0
"03/12/08","09:06:08",23035.000,"cc",28334.150,6.00,6,0.100,20088.000,0.200,1591.000,0.300,661.000,0.500,605.000,1.000,90.000,5.000,0
"03/12/08","09:06:14",22666.000,"cc",28306.537,6.00,6,0.100,19810.000,0.200,1557.000,0.300,645.000,0.500,556.000,1.000,98.000,5.000,0
"03/12/08","09:06:20",22788.000,"cc",28327.682,6.00,6,0.100,19943.000,0.200,1582.000,0.300,685.000,0.500,484.000,1.000,94.000,5.000,0
"03/12/08","09:06:26",23270.000,"cc",28282.721,6.00,6,0.100,20267.000,0.200,1619.000,0.300,716.000,0.500,563.000,1.000,105.000,5.000,0
"03/12/08","09:06:32",22645.000,"cc",28296.436,6.00,6,0.100,19754.000,0.200,1545.000,0.300,655.000,0.500,593.000,1.000,98.000,5.000,0
"03/12/08","09:06:38",22445.000,"cc",28369.596,6.00,6,0.100,19692.000,0.200,1470.000,0.300,650.000,0.500,542.000,1.000,91.000,5.000,0
"03/12/08","09:06:44",23631.000,"cc",28309.107,6.00,6,0.100,20637.000,0.200,1648.000,0.300,645.000,0.500,602.000,1.000,99.000,5.000,0
"03/12/08","09:06:50",23294.000,"cc",28337.223,6.00,6,0.100,20562.000,0.200,1483.000,0.300,640.000,0.500,510.000,1.000,99.000,5.000,0
"03/12/08","09:06:56",24174.000,"cc",28320.785,6.00,6,0.100,21371.000,0.200,1562.000,0.300,652.000,0.500,504.000,1.000,85.000,5.000,0
"03/12/08","09:07:02",27543.000,"cc",28322.309,6.00,6,0.100,24400.000,0.200,1847.000,0.300,647.000,0.500,543.000,1.000,106.000,5.000,0
"03/12/08","09:07:08",34101.000,"cc",28334.627,6.00,6,0.100,30756.000,0.200,2074.000,0.300,670.000,0.500,512.000,1.000,89.000,5.000,0
"03/12/08","09:07:14",27200.000,"cc",28310.660,6.00,6,0.100,24043.000,0.200,1809.000,0.300,659.000,0.500,586.000,1.000,103.000,5.000,0
"03/12/08","09:07:20",23485.000,"cc",28318.543,6.00,6,0.100,20544.000,0.200,1627.000,0.300,704.000,0.500,522.000,1.000,88.000,5.000,0
"03/12/08","09:07:26",22808.000,"cc",28292.945,6.00,6,0.100,19998.000,0.200,1559.000,0.300,659.000,0.500,521.000,1.000,71.000,5.000,0
"03/12/08","09:07:32",22690.000,"cc",28333.174,6.00,6,0.100,19914.000,0.200,1505.000,0.300,656.000,0.500,535.000,1.000,80.000,5.000,0
"03/12/08","09:07:38",22460.000,"cc",28330.889,6.00,6,0.100,19636.000,0.200,1546.000,0.300,648.000,0.500,556.000,1.000,74.000,5.000,0
"03/12/08","09:07:44",22424.000,"cc",28332.848,6.00,6,0.100,19611.000,0.200,1591.000,0.300,646.000,0.500,513.000,1.000,63.000,5.000,0
"03/12/08","09:07:50",22385.000,"cc",28381.641,6.00,6,0.100,19585.000,0.200,1572.000,0.300,648.000,0.500,495.000,1.000,85.000,5.000,0
"03/12/08","09:07:56",22729.000,"cc",28310.938,6.00,6,0.100,19816.000,0.200,1573.000,0.300,710.000,0.500,546.000,1.000,84.000,5.000,0
"03/12/08","09:08:02",22567.000,"cc",28251.533,6.00,6,0.100,19709.000,0.200,1566.000,0.300,652.000,0.500,545.000,1.000,95.000,5.000,0
"03/12/08","09:08:08",22311.000,"cc",28233.551,6.00,6,0.100,19553.000,0.200,1506.000,0.300,643.000,0.500,526.000,1.000,83.000,5.000,0
"03/12/08","09:08:14",22478.000,"cc",28310.410,6.00,6,0.100,19659.000,0.200,1528.000,0.300,649.000,0.500,565.000,1.000,77.000,5.000,0
"03/12/08","09:08:20",22226.000,"cc",28407.123,6.00,6,0.100,19355.000,0.200,1576.000,0.300,639.000,0.500,568.000,1.000,88.000,5.000,0
"03/12/08","09:08:26",22264.000,"cc",28343.412,6.00,6,0.100,19403.000,0.200,1560.000,0.300,644.000,0.500,560.000,1.000,97.000,5.000,0
"03/12/08","09:08:32",22152.000,"cc",28299.293,6.00,6,0.100,19337.000,0.200,1524.000,0.300,659.000,0.500,519.000,1.000,113.000,5.000,0
"03/12/08","09:08:38",22467.000,"cc",28307.201,6.00,6,0.100,19556.000,0.200,1610.000,0.300,629.000,0.500,583.000,1.000,89.000,5.000,0
"03/12/08","09:08:44",21915.000,"cc",28304.070,6.00,6,0.100,19137.000,0.200,1575.000,0.300,613.000,0.500,509.000,1.000,81.000,5.000,0
"03/12/08","09:08:50",22242.000,"cc",28311.414,6.00,6,0.100,19380.000,0.200,1558.000,0.300,653.000,0.500,561.000,1.000,90.000,5.000,0
"03/12/08","09:08:56",22186.000,"cc",28343.375,6.00,6,0.100,19487.000,0.200,1487.000,0.300,616.000,0.500,504.000,1.000,92.000,5.000,0
"03/12/08","09:09:02",22233.000,"cc",28370.693,6.00,6,0.100,19573.000,0.200,1447.000,0.300,621.000,0.500,511.000,1.000,81.000,5.000,0
"03/12/08","09:09:08",21860.000,"cc",28309.424,6.00,6,0.100,19086.000,0.200,1512.000,0.300,642.000,0.500,523.000,1.000,97.000,5.000,0
"03/12/08","09:09:14",22224.000,"cc",28224.031,6.00,6,0.100,19486.000,0.200,1454.000,0.300,659.000,0.500,549.000,1.000,76.000,5.000,0
"03/12/08","09:09:20",22171.000,"cc",28335.486,6.00,6,0.100,19371.000,0.200,1504.000,0.300,684.000,0.500,514.000,1.000,98.000,5.000,0
"03/12/08","09:09:26",22239.000,"cc",28359.166,6.00,6,0.100,19433.000,0.200,1534.000,0.300,655.000,0.500,523.000,1.000,94.000,5.000,0
"03/12/08","09:09:32",21987.000,"cc",28336.440,6.00,6,0.100,19233.000,0.200,1480.000,0.300,662.000,0.500,534.000,1.000,78.000,5.000,0
"03/12/08","09:09:38",22154.000,"cc",28321.430,6.00,6,0.100,19315.000,0.200,1558.000,0.300,657.000,0.500,531.000,1.000,93.000,5.000,0
"03/12/08","09:09:44",21816.000,"cc",28281.943,6.00,6,0.100,19064.000,0.200,1512.000,0.300,617.000,0.500,518.000,1.000,105.000,5.000,0
"03/12/08","09:09:50",21695.000,"cc",28330.143,6.00,6,0.100,19076.000,0.200,1421.000,0.300,581.000,0.500,531.000,1.000,86.000,5.000,0
"03/12/08","09:09:56",22199.000,"cc",28386.197,6.00,6,0.100,19438.000,0.200,1479.000,0.300,617.000,0.500,560.000,1.000,105.000,5.000,0
"03/12/08","09:10:02",21822.000,"cc",28241.715,6.00,6,0.100,19042.000,0.200,1488.000,0.300,642.000,0.500,537.000,1.000,113.000,5.000,0
"03/12/08","09:10:08",22267.000,"cc",28296.250,6.00,6,0.100,19373.000,0.200,1516.000,0.300,702.000,0.500,571.000,1.000,105.000,5.000,0
"03/12/08","09:10:14",21891.000,"cc",28323.190,6.00,6,0.100,19109.000,0.200,1500.000,0.300,624.000,0.500,551.000,1.000,107.000,5.000,0
"03/12/08","09:10:20",22129.000,"cc",28286.863,6.00,6,0.100,19366.000,0.200,1556.000,0.300,593.000,0.500,523.000,1.000,91.000,5.000,0
"03/12/08","09:10:26",22367.000,"cc",28321.139,6.00,6,0.100,19510.000,0.200,1512.000,0.300,638.000,0.500,594.000,1.000,113.000,5.000,0
"03/12/08","09:10:32",22105.000,"cc",28350.633,6.00,6,0.100,19264.000,0.200,1570.000,0.300,661.000,0.500,501.000,1.000,109.000,5.000,0
"03/12/08","09:10:38",22064.000,"cc",28371.795,6.00,6,0.100,19148.000,0.200,1570.000,0.300,675.000,0.500,570.000,1.000,101.000,5.000,0
"03/12/08","09:10:44",22260.000,"cc",28319.412,6.00,6,0.100,19373.000,0.200,1539.000,0.300,674.000,0.500,579.000,1.000,95.000,5.000,0
"03/12/08","09:10:50",22089.000,"cc",28211.621,6.00,6,0.100,19398.000,0.200,1442.000,0.300,630.000,0.500,534.000,1.000,85.000,5.000,0
"03/12/08","09:10:56",22121.000,"cc",28414.395,6.00,6,0.100,19284.000,0.200,1564.000,0.300,607.000,0.500,552.000,1.000,114.000,5.000,0
"03/12/08","09:11:02",22095.000,"cc",28317.254,6.00,6,0.100,19344.000,0.200,1502.000,0.300,603.000,0.500,557.000,1.000,89.000,5.000,0
"03/12/08","09:11:08",22306.000,"cc",28311.381,6.00,6,0.100,19567.000,0.200,1406.000,0.300,684.000,0.500,538.000,1.000,111.000,5.000,0
"03/12/08","09:11:14",22115.000,"cc",28305.252,6.00,6,0.100,19226.000,0.200,1561.000,0.300,656.000,0.500,569.000,1.000,103.000,5.000,0
"03/12/08","09:11:20",22048.000,"cc",28346.016,6.00,6,0.100,19154.000,0.200,1586.000,0.300,661.000,0.500,543.000,1.000,104.000,5.000,0
"03/12/08","09:11:26",22278.000,"cc",28319.570,6.00,6,0.100,19337.000,0.200,1543.000,0.300,666.000,0.500,617.000,1.000,115.000,5.000,0
"03/12/08","09:11:32",22234.000,"cc",28302.193,6.00,6,0.100,19373.000,0.200,1555.000,0.300,625.000,0.500,582.000,1.000,99.000,5.000,0
"03/12/08","09:11:38",22453.000,"cc",28358.262,6.00,6,0.100,19589.000,0.200,1540.000,0.300,666.000,0.500,540.000,1.000,118.000,5.000,0
"03/12/08","09:11:44",22104.000,"cc",28278.871,6.00,6,0.100,19275.000,0.200,1533.000,0.300,624.000,0.500,573.000,1.000,99.000,5.000,0
"03/12/08","09:11:50",22214.000,"cc",28364.897,6.00,6,0.100,19406.000,0.200,1519.000,0.300,663.000,0.500,524.000,1.000,102.000,5.000,0
"03/12/08","09:11:56",22155.000,"cc",28242.125,6.00,6,0.100,19335.000,0.200,1530.000,0.300,632.000,0.500,554.000,1.000,104.000,5.000,0
"03/12/08","09:12:02",22107.000,"cc",28367.965,6.00,6,0.100,19331.000,0.200,1465.000,0.300,639.000,0.500,562.000,1.000,110.000,5.000,0
"03/12/08","09:12:08",21955.000,"cc",28282.582,6.00,6,0.100,19134.000,0.200,1499.000,0.300,673.000,0.500,542.000,1.000,107.000,5.000,0
"03/12/08","09:12:14",21874.000,"cc",28302.182,6.00,6,0.100,19130.000,0.200,1492.000,0.300,607.000,0.500,550.000,1.000,95.000,5.000,0
"03/12/08","09:12:20",22109.000,"cc",28330.023,6.00,6,0.100,19240.000,0.200,1537.000,0.300,622.000,0.500,590.000,1.000,120.000,5.000,0
"03/12/08","09:12:26",21962.000,"cc",28292.162,6.00,6,0.100,19184.000,0.200,1501.000,0.300,647.000,0.500,541.000,1.000,89.000,5.000,0
"03/12/08","09:12:32",22019.000,"cc",28270.557,6.00,6,0.100,19236.000,0.200,1464.000,0.300,675.000,0.500,540.000,1.000,104.000,5.000,0
"03/12/08","09:12:38",22098.000,"cc",28314.842,6.00,6,0.100,19251.000,0.200,1538.000,0.300,657.000,0.500,554.000,1.000,98.000,5.000,0
"03/12/08","09:12:44",22065.000,"cc",28304.551,6.00,6,0.100,19191.000,0.200,1557.000,0.300,668.000,0.500,554.000,1.000,95.000,5.000,0
"03/12/08","09:12:50",22162.000,"cc",28297.309,6.00,6,0.100,19369.000,0.200,1487.000,0.300,658.000,0.500,532.000,1.000,116.000,5.000,0
"03/12/08","09:12:56",22310.000,"cc",28361.660,6.00,6,0.100,19505.000,0.200,1535.000,0.300,649.000,0.500,537.000,1.000,84.000,5.000,0
"03/12/08","09:13:02",21793.000,"cc",28299.092,6.00,6,0.100,19113.000,0.200,1491.000,0.300,605.000,0.500,498.000,1.000,86.000,5.000,0
"03/12/08","09:13:08",22194.000,"cc",28296.074,6.00,6,0.100,19396.000,0.200,1556.000,0.300,604.000,0.500,535.000,1.000,103.000,5.000,0
"03/12/08","09:13:14",22158.000,"cc",28339.139,6.00,6,0.100,19386.000,0.200,1530.000,0.300,606.000,0.500,545.000,1.000,91.000,5.000,0
"03/12/08","09:13:20",22262.000,"cc",28343.365,6.00,6,0.100,19524.000,0.200,1488.000,0.300,652.000,0.500,499.000,1.000,99.000,5.000,0
"03/12/08","09:13:26",22035.000,"cc",28289.842,6.00,6,0.100,19278.000,0.200,1512.000,0.300,625.000,0.500,521.000,1.000,99.000,5.000,0
"03/12/08","09:13:32",22040.000,"cc",28373.065,6.00,6,0.100,19268.000,0.200,1526.000,0.300,610.000,0.500,537.000,1.000,99.000,5.000,0
"03/12/08","09:13:38",21898.000,"cc",28273.428,6.00,6,0.100,19104.000,0.200,1557.000,0.300,605.000,0.500,536.000,1.000,96.000,5.000,0
"03/12/08","09:13:44",21944.000,"cc",28273.688,6.00,6,0.100,19253.000,0.200,1510.000,0.300,599.000,0.500,500.000,1.000,82.000,5.000,0
"03/12/08","09:13:50",21999.000,"cc",28304.525,6.00,6,0.100,19204.000,0.200,1513.000,0.300,673.000,0.500,536.000,1.000,73.000,5.000,0
"03/12/08","09:13:56",21574.000,"cc",28237.186,6.00,6,0.100,18885.000,0.200,1520.000,0.300,649.000,0.500,444.000,1.000,76.000,5.000,0
"03/12/08","09:14:02",21897.000,"cc",28320.545,6.00,6,0.100,19141.000,0.200,1468.000,0.300,666.000,0.500,544.000,1.000,78.000,5.000,0
"03/12/08","09:14:08",21890.000,"cc",28359.449,6.00,6,0.100,19311.000,0.200,1439.000,0.300,580.000,0.500,485.000,1.000,75.000,5.000,0
"03/12/08","09:14:14",21753.000,"cc",28336.617,6.00,6,0.100,19058.000,0.200,1521.000,0.300,617.000,0.500,480.000,1.000,77.000,5.000,0
"03/12/08","09:14:20",21823.000,"cc",28340.219,6.00,6,0.100,19117.000,0.200,1540.000,0.300,635.000,0.500,464.000,1.000,67.000,5.000,0
"03/12/08","09:14:26",21844.000,"cc",28325.633,6.00,6,0.100,19115.000,0.200,1533.000,0.300,586.000,0.500,521.000,1.000,89.000,5.000,0
"03/12/08","09:14:32",21753.000,"cc",28281.482,6.00,6,0.100,19116.000,0.200,1466.000,0.300,619.000,0.500,491.000,1.000,61.000,5.000,0
"03/12/08","09:14:38",21874.000,"cc",28275.572,6.00,6,0.100,19070.000,0.200,1566.000,0.300,672.000,0.500,495.000,1.000,71.000,5.000,0
"03/12/08","09:14:44",21335.000,"cc",28308.924,6.00,6,0.100,18814.000,0.200,1456.000,0.300,556.000,0.500,434.000,1.000,75.000,5.000,0
"03/12/08","09:14:50",21641.000,"cc",28354.420,6.00,6,0.100,19015.000,0.200,1522.000,0.300,602.000,0.500,440.000,1.000,62.000,5.000,0
"03/12/08","09:14:56",21622.000,"cc",28340.815,6.00,6,0.100,18966.000,0.200,1471.000,0.300,615.000,0.500,501.000,1.000,69.000,5.000,0
"03/12/08","09:15:02",21716.000,"cc",28329.566,6.00,6,0.100,19046.000,0.200,1500.000,0.300,620.000,0.500,486.000,1.000,64.000,5.000,0
"03/12/08","09:15:08",21872.000,"cc",28289.236,6.00,6,0.100,19232.000,0.200,1485.000,0.300,604.000,0.500,471.000,1.000,80.000,5.000,0
"03/12/08","09:15:14",21405.000,"cc",28320.008,6.00,6,0.100,18742.000,0.200,1489.000,0.300,589.000,0.500,511.000,1.000,74.000,5.000,0
"03/12/08","09:15:20",21404.000,"cc",28337.270,6.00,6,0.100,18851.000,0.200,1457.000,0.300,614.000,0.500,423.000,1.000,59.000,5.000,0
"03/12/08","09:15:26",21457.000,"cc",28327.135,6.00,6,0.100,18753.000,0.200,1576.000,0.300,594.000,0.500,479.000,1.000,55.000,5.000,0
"03/12/08","09:15:32",21317.000,"cc",28352.240,6.00,6,0.100,18704.000,0.200,1480.000,0.300,578.000,0.500,493.000,1.000,62.000,5.000,0
"03/12/08","09:15:38",21330.000,"cc",28290.352,6.00,6,0.100,18716.000,0.200,1506.000,0.300,557.000,0.500,460.000,1.000,91.000,5.000,0
"03/12/08","09:15:44",21859.000,"cc",28258.522,6.00,6,0.100,19229.000,0.200,1468.000,0.300,635.000,0.500,467.000,1.000,60.000,5.000,0
"03/12/08","09:15:50",21651.000,"cc",28312.656,6.00,6,0.100,18965.000,0.200,1522.000,0.300,631.000,0.500,474.000,1.000,59.000,5.000,0
"03/12/08","09:15:56",21414.000,"cc",28323.809,6.00,6,0.100,18785.000,0.200,1506.000,0.300,606.000,0.500,450.000,1.000,67.000,5.000,0
"03/12/08","09:16:02",21192.000,"cc",28301.744,6.00,6,0.100,18628.000,0.200,1519.000,0.300,560.000,0.500,425.000,1.000,60.000,5.000,0
"03/12/08","09:16:08",21848.000,"cc",28332.408,6.00,6,0.100,19125.000,0.200,1561.000,0.300,626.000,0.500,448.000,1.000,88.000,5.000,0
"03/12/08","09:16:14",21631.000,"cc",28281.947,6.00,6,0.100,19071.000,0.200,1458.000,0.300,603.000,0.500,425.000,1.000,74.000,5.000,0
"03/12/08","09:16:20",21443.000,"cc",28357.318,6.00,6,0.100,18887.000,0.200,1462.000,0.300,585.000,0.500,442.000,1.000,67.000,5.000,0
"03/12/08","09:16:26",21742.000,"cc",28294.828,6.00,6,0.100,19119.000,0.200,1554.000,0.300,585.000,0.500,419.000,1.000,65.000,5.000,0
"03/12/08","09:16:32",21568.000,"cc",28362.830,6.00,6,0.100,19078.000,0.200,1463.000,0.300,565.000,0.500,408.000,1.000,54.000,5.000,0
"03/12/08","09:16:38",21452.000,"cc",28289.922,6.00,6,0.100,18766.000,0.200,1526.000,0.300,629.000,0.500,486.000,1.000,45.000,5.000,0
"03/12/08","09:16:44",21490.000,"cc",28295.727,6.00,6,0.100,18900.000,0.200,1485.000,0.300,631.000,0.500,410.000,1.000,64.000,5.000,0